ORBCOMM FM104 [-] (40090 NORAD) Tracking and Keplerian Element Data

This shows tracking and keplerian element data for the satellite.

Feedback or suggestion? Click here.




ElementValue
Catalog40090
NameORBCOMM FM104 [-]
Epoch Orbit25845
Epoch Day145.88090593
Epoch Year2019
RAAN1.3885
Inclination47.0075
Eccentricity0.0017942
Argument of Perigee204.7391
Mean Anonmoly155.2634
Mean Motion14.53350273
Decay Rate-8.8E-07
L11 40090U 14040E 19145.88090593 -.00000088 00000-0 18658-4 0 9993
L22 40090 47.0075 1.3885 0017942 204.7391 155.2634 14.53350273258455

Live tracking and technical data element details for ORBCOMM FM104 [-] (NORAD 40090). ORBCOMM FM104 [-] can be tracked NOW for your location showing map with azimuth and elevation plus other details from your city location.

Track the satellite on the map from your city or location and see movement details for azimuth, elevation, latitude, longitude, range, height, and movement on the map or in text.







IsCatalogInMostPopularTable: catalog: 40090, numindb: 201
Update: records affected: 1



GetName: 40090 ORBCOMM FM104 [-]

Hit Count: updated at: Sun, 26 May 2019 19:09:09 GMT